Tracking 19909 objects as of 21-Oct-2019
HD Live streaming from Space Station
objects crossing your sky now

COSMOS 1275 DEB

Track COSMOS 1275 DEB now!
10-day predictions


NORAD ID: 17619
Int'l Code: 1981-053KR
Perigee: 818.3 km
Apogee: 852.5 km
Inclination: 82.9 °
Period: 101.5 minutes
Semi major axis: 7206 km
RCS: 0.0072 m2 (small)
Launch date: June 4, 1981
Source: Commonwealth of Independent States (former USSR) (CIS)
Launch site: PLESETSK MISSILE AND SPACE COMPLEX (PKMTR)

Note: This is SATELLITE DEBRIS
aabbcc
Your satellite tracking list
Your tracking list is empty




NASA's NSSDC Master Catalog

Two Line Element Set (TLE):
1 17619U 81053KN  19291.43621735  .00000371  00000-0  16881-3 0  9992
2 17619  82.9498 177.0192 0023699 309.9296 174.4440 14.19144291768944
Source of the keplerian elements: AFSPC